Location: 476 Grange Obs.
(45.1420°N, 7.1420°E)
Time: 09:20:30
(UTC+01:00)

ISS - Visible Passes

Search period start: 09 December 2023 00:00
Search period end: 19 December 2023 00:00
Orbit: 415 x 417 km, 51.6° (Epoch: 09 December)

Date Brightness Start Highest point End Pass type
(mag) Time Alt. Az. Time Alt. Az. Time Alt. Az.
15 Dec -0.5 06:56:17 10° S 06:58:17 15° SE 07:00:18 10° E visible
17 Dec -2.1 06:53:34 10° SSW 06:56:39 36° SE 06:59:45 10° ENE visible
18 Dec -1.3 06:05:03 10° S 06:07:42 22° SE 06:10:22 10° E visible
